Location: Saint Louis
(38.6272°N, 90.1978°W)
Time: 18:14:21
(UTC-06:00)

Hubble Space Telescope - Visible Passes

Search period start: 19 November 2017 00:00
Search period end: 29 November 2017 00:00
Orbit: 537 x 541 km, 28.5° (Epoch: 18 November)

Date Brightness Start Highest point End Pass type
(mag) Time Alt. Az. Time Alt. Az. Time Alt. Az.
19 Nov 3.0 04:54:50 15° SSW 04:56:12 17° S 04:58:54 10° SE visible
20 Nov 2.8 04:45:22 18° S 04:45:53 18° S 04:48:45 10° SE visible
21 Nov 2.9 04:35:52 19° S 04:35:52 19° S 04:38:32 10° SE visible
21 Nov 3.0 06:13:23 10° SW 06:16:10 17° S 06:18:56 10° SE visible
22 Nov 3.0 04:26:19 18° SSE 04:26:19 18° SSE 04:28:16 10° SE visible
22 Nov 3.0 06:03:17 10° SW 06:05:50 16° S 06:08:24 10° SSE visible
23 Nov 3.3 04:16:45 15° SSE 04:16:45 15° SSE 04:17:59 10° SE visible
23 Nov 3.1 05:53:15 10° SW 05:55:31 14° SSW 05:57:47 10° SSE visible
24 Nov 3.7 04:07:10 12° SE 04:07:10 12° SE 04:07:38 10° SE visible
24 Nov 3.2 05:43:22 10° SW 05:45:11 13° SSW 05:46:59 10° S visible
25 Nov 3.2 05:33:51 10° SSW 05:34:50 11° SSW 05:35:48 10° S visible
